TimeEST,TemperatureF,Dew PointF,Humidity,Sea Level PressureIn,VisibilityMPH,Wind Direction,Wind SpeedMPH,Gust SpeedMPH,PrecipitationIn,Events,Conditions,WindDirDegrees,DateUTC
12:15 AM,57.2,48.2,72,30.07,10.0,ESE,3.5,-,N/A,,Mostly Cloudy,120,2013-02-22 05:15:00
12:35 AM,55.4,48.2,77,30.06,10.0,ESE,3.5,-,N/A,,Overcast,120,2013-02-22 05:35:00
12:55 AM,57.2,50.0,77,30.06,10.0,ESE,3.5,-,N/A,,Overcast,120,2013-02-22 05:55:00
1:15 AM,55.4,50.0,82,30.06,10.0,ESE,3.5,-,N/A,,Mostly Cloudy,110,2013-02-22 06:15:00
1:35 AM,55.4,50.0,82,30.05,10.0,ESE,3.5,-,N/A,,Mostly Cloudy,120,2013-02-22 06:35:00
1:55 AM,55.4,50.0,82,30.05,10.0,SE,5.8,-,N/A,,Overcast,130,2013-02-22 06:55:00
2:15 AM,57.2,51.8,82,30.04,10.0,SE,3.5,-,N/A,,Overcast,130,2013-02-22 07:15:00
2:35 AM,57.2,51.8,82,30.05,10.0,ESE,4.6,-,N/A,,Overcast,120,2013-02-22 07:35:00
2:55 AM,57.2,51.8,82,30.04,10.0,ESE,3.5,-,N/A,,Overcast,120,2013-02-22 07:55:00
3:15 AM,57.2,51.8,82,30.03,10.0,ESE,3.5,-,N/A,,Mostly Cloudy,120,2013-02-22 08:15:00
3:35 AM,55.4,53.6,94,30.03,10.0,ESE,3.5,-,N/A,,Clear,120,2013-02-22 08:35:00
3:55 AM,55.4,53.6,94,30.03,10.0,ESE,3.5,-,N/A,,Clear,120,2013-02-22 08:55:00
4:15 AM,57.2,53.6,88,30.02,10.0,ESE,3.5,-,N/A,,Mostly Cloudy,120,2013-02-22 09:15:00
4:35 AM,57.2,55.4,94,30.03,10.0,ESE,4.6,-,N/A,,Mostly Cloudy,120,2013-02-22 09:35:00
4:55 AM,57.2,55.4,94,30.03,10.0,ESE,3.5,-,N/A,,Scattered Clouds,120,2013-02-22 09:55:00
5:15 AM,57.2,55.4,94,30.03,10.0,Calm,Calm,-,N/A,,Scattered Clouds,0,2013-02-22 10:15:00
5:35 AM,57.2,55.4,94,30.04,10.0,Calm,Calm,-,N/A,,Overcast,0,2013-02-22 10:35:00
5:55 AM,59.0,55.4,88,30.04,10.0,ESE,4.6,-,N/A,,Overcast,110,2013-02-22 10:55:00
6:15 AM,59.0,55.4,88,30.05,10.0,ESE,3.5,-,N/A,,Overcast,120,2013-02-22 11:15:00
6:35 AM,57.2,55.4,94,30.05,10.0,ESE,4.6,-,N/A,,Mostly Cloudy,120,2013-02-22 11:35:00
6:55 AM,57.2,55.4,94,30.05,10.0,ESE,4.6,-,N/A,,Scattered Clouds,110,2013-02-22 11:55:00
7:15 AM,57.2,57.2,100,30.06,10.0,SE,4.6,-,N/A,,Scattered Clouds,130,2013-02-22 12:15:00
7:35 AM,59.0,59.0,100,30.06,10.0,SE,3.5,-,N/A,,Mostly Cloudy,130,2013-02-22 12:35:00
7:55 AM,59.0,59.0,100,30.07,10.0,SSE,4.6,-,N/A,,Mostly Cloudy,150,2013-02-22 12:55:00
8:15 AM,59.0,59.0,100,30.05,10.0,SE,5.8,-,N/A,,Mostly Cloudy,140,2013-02-22 13:15:00
8:35 AM,60.8,60.8,100,30.07,10.0,SSE,8.1,-,N/A,,Scattered Clouds,150,2013-02-22 13:35:00
8:55 AM,62.6,60.8,94,30.06,10.0,SSE,9.2,-,N/A,,Clear,150,2013-02-22 13:55:00
9:15 AM,62.6,60.8,94,30.07,10.0,South,6.9,-,N/A,,Clear,170,2013-02-22 14:15:00
9:35 AM,64.4,60.8,88,30.06,10.0,South,8.1,-,N/A,,Clear,170,2013-02-22 14:35:00
9:55 AM,66.2,62.6,88,30.05,10.0,SSE,5.8,-,N/A,,Clear,160,2013-02-22 14:55:00
10:15 AM,68.0,62.6,83,30.06,10.0,SSE,4.6,-,N/A,,Clear,160,2013-02-22 15:15:00
10:35 AM,68.0,62.6,83,30.07,10.0,SSE,3.5,-,N/A,,Clear,160,2013-02-22 15:35:00
10:55 AM,68.0,62.6,83,30.06,10.0,SE,4.6,-,N/A,,Clear,140,2013-02-22 15:55:00
11:15 AM,68.0,62.6,83,30.08,10.0,South,4.6,-,N/A,,Clear,170,2013-02-22 16:15:00
11:35 AM,69.8,62.6,78,30.08,10.0,Calm,Calm,-,N/A,,Mostly Cloudy,0,2013-02-22 16:35:00
11:55 AM,69.8,64.4,83,30.09,10.0,Calm,Calm,-,N/A,,Overcast,0,2013-02-22 16:55:00
12:15 PM,69.8,64.4,83,30.08,10.0,Calm,Calm,-,N/A,,Overcast,0,2013-02-22 17:15:00
12:35 PM,69.8,64.4,83,30.08,10.0,Calm,Calm,-,N/A,,Overcast,0,2013-02-22 17:35:00
12:55 PM,69.8,64.4,83,30.08,10.0,Calm,Calm,-,N/A,,Overcast,0,2013-02-22 17:55:00
1:15 PM,69.8,64.4,83,30.09,10.0,NNW,4.6,-,N/A,,Overcast,340,2013-02-22 18:15:00
1:35 PM,68.0,64.4,88,30.09,10.0,NNW,3.5,-,N/A,Rain,Light Rain,330,2013-02-22 18:35:00
1:55 PM,68.0,64.4,88,30.07,10.0,Calm,Calm,-,N/A,Rain,Light Rain,0,2013-02-22 18:55:00
2:15 PM,66.2,64.4,94,30.08,5.0,Calm,Calm,-,N/A,Rain,Light Rain,0,2013-02-22 19:15:00
2:35 PM,64.4,64.4,100,30.08,7.0,Calm,Calm,-,N/A,Rain,Light Rain,0,2013-02-22 19:35:00
2:55 PM,64.4,64.4,100,30.07,5.0,Calm,Calm,-,N/A,Rain,Light Rain,0,2013-02-22 19:55:00
3:15 PM,64.4,64.4,100,30.04,7.0,SE,5.8,-,N/A,Rain,Light Rain,130,2013-02-22 20:15:00
3:35 PM,64.4,64.4,100,30.02,10.0,SSE,4.6,-,N/A,,Light Drizzle,150,2013-02-22 20:35:00
3:55 PM,64.4,64.4,100,30.03,7.0,SSW,3.5,-,N/A,Rain,Light Rain,200,2013-02-22 20:55:00
4:15 PM,64.4,64.4,100,30.04,10.0,SSW,4.6,-,N/A,Rain,Light Rain,210,2013-02-22 21:15:00
4:35 PM,64.4,64.4,100,30.03,10.0,South,5.8,-,N/A,Rain,Light Rain,170,2013-02-22 21:35:00
4:55 PM,64.4,64.4,100,30.02,10.0,South,4.6,-,N/A,Rain,Light Rain,170,2013-02-22 21:55:00
5:15 PM,64.4,64.4,100,30.03,10.0,South,5.8,-,N/A,Rain,Light Rain,180,2013-02-22 22:15:00
5:35 PM,64.4,64.4,100,30.03,5.0,SSE,4.6,-,N/A,Rain,Rain,160,2013-02-22 22:35:00
5:55 PM,64.4,64.4,100,30.04,4.0,South,5.8,-,N/A,Rain,Rain,170,2013-02-22 22:55:00
6:15 PM,64.4,64.4,100,30.05,5.0,SSW,4.6,-,N/A,Rain,Rain,210,2013-02-22 23:15:00
6:35 PM,62.6,62.6,100,30.06,7.0,SSW,4.6,-,N/A,Rain,Rain,210,2013-02-22 23:35:00
6:55 PM,62.6,62.6,100,30.06,10.0,South,5.8,-,N/A,Rain,Rain,190,2013-02-22 23:55:00
7:15 PM,62.6,62.6,100,30.06,10.0,South,4.6,-,N/A,Rain,Light Rain,190,2013-02-23 00:15:00
7:35 PM,62.6,62.6,100,30.04,7.0,Calm,Calm,-,N/A,Rain,Light Rain,0,2013-02-23 00:35:00
7:55 PM,62.6,62.6,100,30.05,10.0,SSE,3.5,-,N/A,Rain,Light Rain,160,2013-02-23 00:55:00
8:15 PM,62.6,62.6,100,30.06,7.0,South,3.5,-,N/A,Rain,Rain,190,2013-02-23 01:15:00
8:35 PM,62.6,62.6,100,30.06,5.0,South,4.6,-,N/A,Rain,Rain,190,2013-02-23 01:35:00
8:55 PM,62.6,62.6,100,30.05,4.0,SSE,3.5,-,N/A,Rain,Rain,160,2013-02-23 01:55:00
9:15 PM,62.6,62.6,100,30.06,4.0,South,3.5,-,N/A,Rain,Rain,190,2013-02-23 02:15:00
9:35 PM,62.6,62.6,100,30.05,4.0,Calm,Calm,-,N/A,Rain,Heavy Rain,0,2013-02-23 02:35:00
9:55 PM,62.6,62.6,100,30.05,3.0,Calm,Calm,-,N/A,Rain,Heavy Rain,0,2013-02-23 02:55:00
10:15 PM,62.6,62.6,100,30.03,4.0,ESE,3.5,-,N/A,Rain,Rain,120,2013-02-23 03:15:00
10:35 PM,62.6,62.6,100,30.03,7.0,SSE,3.5,-,N/A,Rain,Light Rain,150,2013-02-23 03:35:00
10:55 PM,62.6,62.6,100,30.03,7.0,Calm,Calm,-,N/A,Rain,Rain,0,2013-02-23 03:55:00
11:15 PM,62.6,62.6,100,30.02,2.5,Calm,Calm,-,N/A,Rain,Rain,0,2013-02-23 04:15:00
11:35 PM,62.6,62.6,100,30.01,2.0,East,3.5,-,N/A,Rain,Rain,80,2013-02-23 04:35:00
11:55 PM,62.6,62.6,100,30.00,3.0,ESE,5.8,-,N/A,Rain,Heavy Rain,110,2013-02-23 04:55:00